Weather in Horta

Portugal     38°32′10″N   28°37′47″W
temp.,
°C
wind,
m/s
gust,
m/s
humid.,
%
clouds,
%
prec.,
mm/h
press.,
hPa
HPBL,
m
15 august, mon
mon1500:00+25nnw45850 0.4 1021503
03:00+24n44867 0.1 1021439
06:00+24n238328 0.2 1020311
09:00+24n458223 0.1 1021574
12:00+24n56750 0.1 1022674
15:00+24nne55761 0.0 1022750
18:00+24ne67781 0.0 1022698
21:00+24ene887828 0.1 1023761
16 august, tue
tue1600:00+23ne98792 0.2 1024716
03:00+23ne877747 0.1 1024822
06:00+23ne997221 0.1 1024817
09:00+23ene88681 0.0 1025920
12:00+23ene77644 0.0 10271136
15:00+23ene65611 0.0 10271021
18:00+23ene887357 0.1 1027986
21:00+23ene557296 0.1 1028814
17 august, wed
wed1700:00+23ene766720 0.3 1028995
03:00+22ene766826 0.1 10271011
06:00+22ene766456 0.1 1027959
09:00+22ene666328 0.0 1028969
12:00+22ene446424 0.1 10291010
15:00+23ene336638 0.3 1028917
18:00+23ese116279 0.3 1028938
21:00+23ne666736 0.1 1028894
18 august, thu
thu1800:00+23ene44679 0.1 1029948
03:00+22e336513 0.1 1028957
06:00+22ene226219 0.1 1027884
09:00+22ene236122 0.0 10271045
12:00+22ene44614 0.0 10281071
15:00+23ne55638 0.0 1027921
18:00+23ne66642 0.0 1026964
21:00+23ne666748 0.0 1027937
19 august, fri
fri1900:00+23ene7771100 0.0 1027850
03:00+23ene766910 0.0 1026955
06:00+22ene776937 0.1 10261105
09:00+23ene776680 0.1 10271257
12:00+23ene666642 0.1 10271103
15:00+23ne776713 0.0 1026929
18:00+23ne776917 0.0 1026968
21:00+23ene88692 0.0 10261020